Terminal Aerodrome Forecast
Issued by NWS

Home | Current Version | Previous Version | Text Only | Print | Product List | Glossary On
Versions: 1 2 3 4 5 6 7 8 9 10 11 12 13 14 15 16 17 18 19 20 21 22 23 24 25 26 27 28 29 30 31 32 33 34 35 36 37 38 39 40 41 42 43 44
000
FTAK31 PAFA 180656 AAA
TAFAMC
TAF AMD
PAMC 180656Z 1807/1906 VRB02KT 3SM BR OVC006
     FM181200 00000KT 4SM BR BKN007
     FM181700 00000KT P6SM BKN015=

USA.gov is the U.S. government's official web portal to all federal, state and local government web resources and services.